Date,MW,Mvar
01/01/2018 00:15,7.72,0.16
01/01/2018 00:30,8.8,0.3
01/01/2018 00:45,9.02,0.35
01/01/2018 01:00,8.22,0.3
01/01/2018 01:15,7.43,0.2
01/01/2018 01:30,6.82,0.18
01/01/2018 01:45,6.26,0.18
01/01/2018 02:00,5.98,0.16
01/01/2018 02:15,5.78,0.03
01/01/2018 02:30,5.85,0.07
01/01/2018 02:45,5.52,0.07
01/01/2018 03:00,5.22,0.06
01/01/2018 03:15,5.03,0.05
01/01/2018 03:30,4.96,0.04
01/01/2018 03:45,4.85,0.06
01/01/2018 04:00,4.74,0.05
01/01/2018 04:15,4.74,0.03
01/01/2018 04:30,4.65,-0.01
01/01/2018 04:45,4.66,0
01/01/2018 05:00,4.64,0.03
01/01/2018 05:15,4.71,0.04
01/01/2018 05:30,4.67,0.08
01/01/2018 05:45,4.76,0.11
01/01/2018 06:00,4.74,0.09
01/01/2018 06:15,4.68,-0.02
01/01/2018 06:30,4.65,-0.07
01/01/2018 06:45,4.78,-0.03
01/01/2018 07:00,4.85,-0.03
01/01/2018 07:15,4.78,-0.05
01/01/2018 07:30,4.59,-0.14
01/01/2018 07:45,4.65,-0.15
01/01/2018 08:00,4.72,-0.09
01/01/2018 08:15,4.31,-0.07
01/01/2018 08:30,4.36,0.02
01/01/2018 08:45,4.35,0.09
01/01/2018 09:00,4.38,0.15
01/01/2018 09:15,4.41,0.13
01/01/2018 09:30,4.33,0.19
01/01/2018 09:45,4.19,0.22
01/01/2018 10:00,4.11,0.27
01/01/2018 10:15,4.2,0.33
01/01/2018 10:30,4.39,0.45
01/01/2018 10:45,4.31,0.54
01/01/2018 11:00,4.19,0.54
01/01/2018 11:15,4.17,0.58
01/01/2018 11:30,4.15,0.65
01/01/2018 11:45,4.2,0.69
01/01/2018 12:00,4.17,0.76
01/01/2018 12:15,4.1,0.67
01/01/2018 12:30,4.28,0.75
01/01/2018 12:45,4.35,0.79
01/01/2018 13:00,4.45,1.01
01/01/2018 13:15,4.43,0.98
01/01/2018 13:30,4.4,0.96
01/01/2018 13:45,4.29,0.91
01/01/2018 14:00,4.33,0.92
01/01/2018 14:15,4.42,0.93
01/01/2018 14:30,4.47,0.96
01/01/2018 14:45,4.39,0.92
01/01/2018 15:00,4.61,1.07
01/01/2018 15:15,4.65,0.99
01/01/2018 15:30,4.71,0.96
01/01/2018 15:45,4.79,0.99
01/01/2018 16:00,4.92,1.03
01/01/2018 16:15,5.27,1.02
01/01/2018 16:30,5.36,1.04
01/01/2018 16:45,5.44,1.08
01/01/2018 17:00,5.62,1.09
01/01/2018 17:15,5.87,1.12
01/01/2018 17:30,6.1,1.15
01/01/2018 17:45,6.36,1.13
01/01/2018 18:00,6.53,1.08
01/01/2018 18:15,6.68,1
01/01/2018 18:30,6.78,1
01/01/2018 18:45,6.91,1.04
01/01/2018 19:00,6.93,0.96
01/01/2018 19:15,6.77,0.87
01/01/2018 19:30,6.72,0.82
01/01/2018 19:45,6.57,0.79
01/01/2018 20:00,6.56,0.75
01/01/2018 20:15,6.44,0.66
01/01/2018 20:30,6.4,0.67
01/01/2018 20:45,6.2,0.51
01/01/2018 21:00,6.12,0.47
01/01/2018 21:15,6.31,0.46
01/01/2018 21:30,6.31,0.5
01/01/2018 21:45,6.17,0.48
01/01/2018 22:00,6.08,0.49
01/01/2018 22:15,6.17,0.45
01/01/2018 22:30,6.49,0.43
01/01/2018 22:45,6.5,0.43
01/01/2018 23:00,6.25,0.42
01/01/2018 23:15,6.34,0.38
01/01/2018 23:30,6.68,0.32
01/01/2018 23:45,7.1,0.32
02/01/2018 00:00,7.36,0.28
02/01/2018 00:15,7.64,0.24
02/01/2018 00:30,8.61,0.31
02/01/2018 00:45,8.91,0.43
02/01/2018 01:00,8.15,0.39
02/01/2018 01:15,7.34,0.34
02/01/2018 01:30,6.8,0.32
02/01/2018 01:45,6.37,0.25
02/01/2018 02:00,5.97,0.19
02/01/2018 02:15,5.88,0.18
02/01/2018 02:30,5.88,0.2
02/01/2018 02:45,5.64,0.2
02/01/2018 03:00,5.41,0.15
02/01/2018 03:15,5.21,0.15
02/01/2018 03:30,5.12,0.18
02/01/2018 03:45,5,0.15
02/01/2018 04:00,5,0.17
02/01/2018 04:15,4.85,0.15
02/01/2018 04:30,4.87,0.16
02/01/2018 04:45,4.79,0.15
02/01/2018 05:00,4.78,0.12
02/01/2018 05:15,4.81,0.1
02/01/2018 05:30,4.89,0.11
02/01/2018 05:45,5.06,0.16
02/01/2018 06:00,5.12,0.19
02/01/2018 06:15,5.17,0.11
02/01/2018 06:30,5.2,0.08
02/01/2018 06:45,5.43,0.03
02/01/2018 07:00,5.63,0.05
02/01/2018 07:15,5.54,0.04
02/01/2018 07:30,5.67,0.05
02/01/2018 07:45,5.73,0.14
02/01/2018 08:00,5.79,0.19
02/01/2018 08:15,5.2,0.26
02/01/2018 08:30,5.53,0.42
02/01/2018 08:45,5.77,0.55
02/01/2018 09:00,5.8,0.56
02/01/2018 09:15,5.83,0.56
02/01/2018 09:30,5.7,0.59
02/01/2018 09:45,5.73,0.68
02/01/2018 10:00,5.65,0.58
02/01/2018 10:15,5.61,0.64
02/01/2018 10:30,5.44,0.59
02/01/2018 10:45,5.54,0.66
02/01/2018 11:00,5.4,0.71
02/01/2018 11:15,5.48,0.72
02/01/2018 11:30,5.3,0.76
02/01/2018 11:45,4.99,0.85
02/01/2018 12:00,5.06,0.73
02/01/2018 12:15,4.81,0.82
02/01/2018 12:30,4.9,0.85
02/01/2018 12:45,4.96,0.83
02/01/2018 13:00,5.03,0.89
02/01/2018 13:15,4.82,0.87
02/01/2018 13:30,4.82,0.98
02/01/2018 13:45,4.83,1.07
02/01/2018 14:00,4.77,0.99
02/01/2018 14:15,4.82,0.94
02/01/2018 14:30,4.87,0.92
02/01/2018 14:45,4.81,1.01
02/01/2018 15:00,4.69,1.03
02/01/2018 15:15,4.67,1.05
02/01/2018 15:30,4.56,1.05
02/01/2018 15:45,4.58,1.09
02/01/2018 16:00,4.53,1.04
02/01/2018 16:15,4.63,0.99
02/01/2018 16:30,4.74,0.93
02/01/2018 16:45,4.89,0.98
02/01/2018 17:00,5.04,0.94
02/01/2018 17:15,5.39,0.87
02/01/2018 17:30,5.42,0.81
02/01/2018 17:45,5.53,0.72
02/01/2018 18:00,5.9,0.82
02/01/2018 18:15,5.96,0.73
02/01/2018 18:30,6.01,0.62
02/01/2018 18:45,6.19,0.58
02/01/2018 19:00,6.14,0.56
02/01/2018 19:15,6.19,0.47
02/01/2018 19:30,6.07,0.46
02/01/2018 19:45,6.03,0.48
02/01/2018 20:00,6.06,0.41
02/01/2018 20:15,5.93,0.33
02/01/2018 20:30,5.96,0.36
02/01/2018 20:45,5.95,0.38
02/01/2018 21:00,5.95,0.34
02/01/2018 21:15,6.06,0.32
02/01/2018 21:30,6.12,0.36
02/01/2018 21:45,6.05,0.36
02/01/2018 22:00,5.93,0.37
02/01/2018 22:15,6.13,0.35
02/01/2018 22:30,6.4,0.35
02/01/2018 22:45,6.5,0.34
02/01/2018 23:00,6.25,0.32
02/01/2018 23:15,6.28,0.29
02/01/2018 23:30,6.64,0.28
02/01/2018 23:45,7.11,0.29
03/01/2018 00:00,7.34,0.22
03/01/2018 00:15,7.83,0.24
03/01/2018 00:30,8.83,0.27
03/01/2018 00:45,8.94,0.31
03/01/2018 01:00,8.29,0.31
03/01/2018 01:15,7.55,0.26
03/01/2018 01:30,6.9,0.23
03/01/2018 01:45,6.38,0.15
03/01/2018 02:00,5.99,0.14
03/01/2018 02:15,5.9,0.11
03/01/2018 02:30,5.97,0.15
03/01/2018 02:45,5.57,0.1
03/01/2018 03:00,5.29,0.13
03/01/2018 03:15,5.19,0.18
03/01/2018 03:30,5.06,0.12
03/01/2018 03:45,4.93,0.1
03/01/2018 04:00,4.87,0.1
03/01/2018 04:15,4.89,0.09
03/01/2018 04:30,4.77,0.07
03/01/2018 04:45,4.87,0.1
03/01/2018 05:00,4.81,0.11
03/01/2018 05:15,4.88,0.11
03/01/2018 05:30,4.94,0.04
03/01/2018 05:45,5.17,0.12
03/01/2018 06:00,5.29,0.14
03/01/2018 06:15,5.44,0.15
03/01/2018 06:30,5.62,0.17
03/01/2018 06:45,5.82,0.15
03/01/2018 07:00,6.05,0.21
03/01/2018 07:15,6.1,0.19
03/01/2018 07:30,6.28,0.29
03/01/2018 07:45,6.21,0.33
03/01/2018 08:00,6.73,0.53
03/01/2018 08:15,6.44,0.83
03/01/2018 08:30,6.67,0.99
03/01/2018 08:45,6.84,1.06
03/01/2018 09:00,7.03,1.15
03/01/2018 09:15,7.06,1.16
03/01/2018 09:30,7.14,1.29
03/01/2018 09:45,7.04,1.33
03/01/2018 10:00,6.8,1.29
03/01/2018 10:15,6.84,1.24
03/01/2018 10:30,6.65,1.28
03/01/2018 10:45,6.61,1.35
03/01/2018 11:00,6.55,1.42
03/01/2018 11:15,6.29,1.42
03/01/2018 11:30,6.26,1.42
03/01/2018 11:45,6.02,1.33
03/01/2018 12:00,5.86,1.28
03/01/2018 12:15,5.74,1.41
03/01/2018 12:30,5.58,1.37
03/01/2018 12:45,5.6,1.38
03/01/2018 13:00,5.68,1.54
03/01/2018 13:15,5.62,1.58
03/01/2018 13:30,5.67,1.66
03/01/2018 13:45,5.44,1.56
03/01/2018 14:00,5.35,1.52
03/01/2018 14:15,5.52,1.64
03/01/2018 14:30,5.41,1.63
03/01/2018 14:45,5.5,1.67
03/01/2018 15:00,5.76,1.64
03/01/2018 15:15,5.77,1.64
03/01/2018 15:30,5.73,1.62
03/01/2018 15:45,5.79,1.58
03/01/2018 16:00,5.82,1.58
03/01/2018 16:15,5.81,1.52
03/01/2018 16:30,5.89,1.47
03/01/2018 16:45,5.97,1.46
03/01/2018 17:00,6.14,1.46
03/01/2018 17:15,6.37,1.43
03/01/2018 17:30,6.46,1.44
03/01/2018 17:45,6.69,1.42
03/01/2018 18:00,6.92,1.36
03/01/2018 18:15,6.95,1.25
03/01/2018 18:30,7.13,1.24
03/01/2018 18:45,7.22,1.24
03/01/2018 19:00,7.29,1.19
03/01/2018 19:15,7.25,1.15
03/01/2018 19:30,7.16,1.05
03/01/2018 19:45,7.13,1.01
03/01/2018 20:00,7.02,0.89
03/01/2018 20:15,6.92,0.87
03/01/2018 20:30,6.83,0.78
03/01/2018 20:45,6.81,0.79
03/01/2018 21:00,6.76,0.73
03/01/2018 21:15,6.9,0.77
03/01/2018 21:30,6.95,0.78
03/01/2018 21:45,6.83,0.78
03/01/2018 22:00,6.61,0.72
03/01/2018 22:15,6.78,0.72
03/01/2018 22:30,7.18,0.69
03/01/2018 22:45,7.22,0.69
03/01/2018 23:00,7.01,0.68
03/01/2018 23:15,7.07,0.64
03/01/2018 23:30,7.44,0.62
03/01/2018 23:45,7.65,0.57
04/01/2018 00:00,7.97,0.58
04/01/2018 00:15,8.36,0.54
04/01/2018 00:30,9.38,0.59
04/01/2018 00:45,9.5,0.62
04/01/2018 01:00,8.81,0.61
04/01/2018 01:15,8.02,0.53
04/01/2018 01:30,7.4,0.49
04/01/2018 01:45,6.92,0.49
04/01/2018 02:00,6.55,0.46
04/01/2018 02:15,6.31,0.45
04/01/2018 02:30,6.32,0.48
04/01/2018 02:45,6.06,0.43
04/01/2018 03:00,5.81,0.41
04/01/2018 03:15,5.63,0.4
04/01/2018 03:30,5.54,0.42
04/01/2018 03:45,5.46,0.41
04/01/2018 04:00,5.45,0.39
04/01/2018 04:15,5.31,0.38
04/01/2018 04:30,5.24,0.36
04/01/2018 04:45,5.58,0.48
04/01/2018 05:00,5.51,0.46
04/01/2018 05:15,5.59,0.43
04/01/2018 05:30,5.51,0.4
04/01/2018 05:45,5.57,0.36
04/01/2018 06:00,5.62,0.34
04/01/2018 06:15,5.79,0.31
04/01/2018 06:30,5.87,0.35
04/01/2018 06:45,6.24,0.4
04/01/2018 07:00,6.54,0.44
04/01/2018 07:15,6.43,0.47
04/01/2018 07:30,6.59,0.53
04/01/2018 07:45,6.7,0.64
04/01/2018 08:00,6.86,0.74
04/01/2018 08:15,6.47,0.8
04/01/2018 08:30,6.47,0.93
04/01/2018 08:45,6.68,1.17
04/01/2018 09:00,6.76,1.33
04/01/2018 09:15,6.66,1.33
04/01/2018 09:30,6.52,1.39
04/01/2018 09:45,6.67,1.58
04/01/2018 10:00,6.51,1.54
04/01/2018 10:15,6.5,1.61
04/01/2018 10:30,6.39,1.68
04/01/2018 10:45,6.37,1.81
04/01/2018 11:00,6.33,1.91
04/01/2018 11:15,6.39,1.97
04/01/2018 11:30,6.37,1.97
04/01/2018 11:45,6.72,2.06
04/01/2018 12:00,6.74,2.05
04/01/2018 12:15,6.69,2.06
04/01/2018 12:30,6.71,2.12
04/01/2018 12:45,6.8,2.13
04/01/2018 13:00,6.9,2.27
04/01/2018 13:15,6.8,2.25
04/01/2018 13:30,6.82,2.24
04/01/2018 13:45,6.78,2.27
04/01/2018 14:00,6.87,2.19
04/01/2018 14:15,6.76,2.09
04/01/2018 14:30,6.91,2.19
04/01/2018 14:45,6.93,2.24
04/01/2018 15:00,7.08,2.31
04/01/2018 15:15,7.19,2.22
04/01/2018 15:30,7.24,2.28
04/01/2018 15:45,7.19,2.27
04/01/2018 16:00,7.45,2.5
04/01/2018 16:15,7.52,2.37
04/01/2018 16:30,7.67,2.36
04/01/2018 16:45,7.82,2.32
04/01/2018 17:00,8.02,2.29
04/01/2018 17:15,8.3,2.3
04/01/2018 17:30,8.6,2.29
04/01/2018 17:45,8.76,2.23
04/01/2018 18:00,8.9,2.22
04/01/2018 18:15,8.94,2.03
04/01/2018 18:30,9.18,2.05
04/01/2018 18:45,9.24,2.02
04/01/2018 19:00,9.2,2.01
04/01/2018 19:15,9.12,2
04/01/2018 19:30,8.98,1.93
04/01/2018 19:45,8.79,1.73
04/01/2018 20:00,8.68,1.66
04/01/2018 20:15,8.48,1.62
04/01/2018 20:30,8.34,1.62
04/01/2018 20:45,8.21,1.53
04/01/2018 21:00,8.07,1.46
04/01/2018 21:15,8.13,1.48
04/01/2018 21:30,7.99,1.45
04/01/2018 21:45,7.81,1.36
04/01/2018 22:00,7.54,1.26
04/01/2018 22:15,7.55,1.21
04/01/2018 22:30,7.86,1.16
04/01/2018 22:45,7.88,1.17
04/01/2018 23:00,7.63,1.17
04/01/2018 23:15,7.44,0.94
04/01/2018 23:30,7.8,0.87
04/01/2018 23:45,8.11,0.83
05/01/2018 00:00,8.39,0.8
05/01/2018 00:15,8.75,0.78
05/01/2018 00:30,9.66,0.82
05/01/2018 00:45,9.62,0.82
05/01/2018 01:00,8.89,0.79
05/01/2018 01:15,8.14,0.71
05/01/2018 01:30,7.6,0.72
05/01/2018 01:45,7.15,0.69
05/01/2018 02:00,6.79,0.67
05/01/2018 02:15,6.78,0.69
05/01/2018 02:30,6.8,0.71
05/01/2018 02:45,6.47,0.64
05/01/2018 03:00,6.17,0.62
05/01/2018 03:15,6.05,0.6
05/01/2018 03:30,5.94,0.57
05/01/2018 03:45,5.86,0.56
05/01/2018 04:00,5.71,0.55
05/01/2018 04:15,5.68,0.54
05/01/2018 04:30,5.7,0.56
05/01/2018 04:45,5.85,0.6
05/01/2018 05:00,5.87,0.59
05/01/2018 05:15,5.91,0.61
05/01/2018 05:30,6.07,0.65
05/01/2018 05:45,6.01,0.62
05/01/2018 06:00,6.17,0.57
05/01/2018 06:15,6.24,0.53
05/01/2018 06:30,6.44,0.6
05/01/2018 06:45,6.67,0.59
05/01/2018 07:00,6.87,0.7
05/01/2018 07:15,7.04,0.75
05/01/2018 07:30,7.09,0.78
05/01/2018 07:45,7.08,0.86
05/01/2018 08:00,7.14,0.92
05/01/2018 08:15,6.51,1.03
05/01/2018 08:30,6.55,1.09
05/01/2018 08:45,6.62,1.18
05/01/2018 09:00,6.55,1.24
05/01/2018 09:15,6.59,1.29
05/01/2018 09:30,6.55,1.38
05/01/2018 09:45,6.45,1.42
05/01/2018 10:00,6.61,1.53
05/01/2018 10:15,6.6,1.55
05/01/2018 10:30,6.41,1.63
05/01/2018 10:45,6.59,1.86
05/01/2018 11:00,6.75,2.01
05/01/2018 11:15,6.78,2.06
05/01/2018 11:30,6.88,2.09
05/01/2018 11:45,6.99,2.09
05/01/2018 12:00,7.03,2.16
05/01/2018 12:15,7.09,2.16
05/01/2018 12:30,7.29,2.31
05/01/2018 12:45,7.36,2.33
05/01/2018 13:00,7.27,2.22
05/01/2018 13:15,7.41,2.23
05/01/2018 13:30,7.42,2.25
05/01/2018 13:45,7.51,2.31
05/01/2018 14:00,7.62,2.31
05/01/2018 14:15,7.78,2.34
05/01/2018 14:30,7.99,2.63
05/01/2018 14:45,8.12,2.68
05/01/2018 15:00,8.6,2.92
05/01/2018 15:15,8.64,2.69
05/01/2018 15:30,8.68,2.67
05/01/2018 15:45,8.94,2.75
05/01/2018 16:00,9.1,2.73
05/01/2018 16:15,9.14,2.57
05/01/2018 16:30,9.48,2.65
05/01/2018 16:45,9.67,2.67
05/01/2018 17:00,9.8,2.64
05/01/2018 17:15,10.03,2.53
05/01/2018 17:30,10.19,2.48
05/01/2018 17:45,10.42,2.42
05/01/2018 18:00,10.74,2.42
05/01/2018 18:15,10.86,2.39
05/01/2018 18:30,11.19,2.65
05/01/2018 18:45,11.28,2.54
05/01/2018 19:00,11.36,2.47
05/01/2018 19:15,11.31,2.41
05/01/2018 19:30,11.38,2.53
05/01/2018 19:45,11.28,2.52
05/01/2018 20:00,11.14,2.5
05/01/2018 20:15,11.03,2.48
05/01/2018 20:30,10.79,2.37
05/01/2018 20:45,10.55,2.44
05/01/2018 21:00,10.17,2.17
05/01/2018 21:15,10.06,2.13
05/01/2018 21:30,10,2.2
05/01/2018 21:45,9.58,2.11
05/01/2018 22:00,9.18,1.97
05/01/2018 22:15,8.95,1.7
05/01/2018 22:30,9.08,1.62
05/01/2018 22:45,9.03,1.66
05/01/2018 23:00,8.59,1.62
05/01/2018 23:15,8.57,1.62
05/01/2018 23:30,8.84,1.54
05/01/2018 23:45,8.95,1.44
06/01/2018 00:00,8.98,1.35
06/01/2018 00:15,9.39,1.31
06/01/2018 00:30,10.23,1.27
06/01/2018 00:45,10.21,1.24
06/01/2018 01:00,9.29,1.3
06/01/2018 01:15,8.45,1.15
06/01/2018 01:30,7.75,1.01
06/01/2018 01:45,7.32,1.03
06/01/2018 02:00,6.95,0.99
06/01/2018 02:15,6.86,1
06/01/2018 02:30,6.94,1.03
06/01/2018 02:45,6.67,0.99
06/01/2018 03:00,6.3,0.94
06/01/2018 03:15,6.21,0.91
06/01/2018 03:30,6.14,0.91
06/01/2018 03:45,6.09,0.88
06/01/2018 04:00,6.08,0.92
06/01/2018 04:15,5.93,0.89
06/01/2018 04:30,5.84,0.83
06/01/2018 04:45,5.93,0.85
06/01/2018 05:00,5.91,0.82
06/01/2018 05:15,5.88,0.83
06/01/2018 05:30,5.91,0.82
06/01/2018 05:45,5.87,0.79
06/01/2018 06:00,5.78,0.72
06/01/2018 06:15,5.85,0.7
06/01/2018 06:30,5.96,0.72
06/01/2018 06:45,6.08,0.74
06/01/2018 07:00,6.3,0.74
06/01/2018 07:15,6.32,0.8
06/01/2018 07:30,6.39,0.8
06/01/2018 07:45,6.7,0.93
06/01/2018 08:00,6.98,1.01
06/01/2018 08:15,6.6,1.08
06/01/2018 08:30,6.73,1.16
06/01/2018 08:45,6.84,1.39
06/01/2018 09:00,7.02,1.53
06/01/2018 09:15,7.28,1.68
06/01/2018 09:30,7.34,1.77
06/01/2018 09:45,7.56,1.83
06/01/2018 10:00,7.7,1.91
06/01/2018 10:15,7.92,1.91
06/01/2018 10:30,8,1.99
06/01/2018 10:45,8.43,2.19
06/01/2018 11:00,8.73,2.28
06/01/2018 11:15,8.95,2.33
06/01/2018 11:30,9.17,2.34
06/01/2018 11:45,9.34,2.34
06/01/2018 12:00,9.57,2.42
06/01/2018 12:15,9.74,2.45
06/01/2018 12:30,9.8,2.38
06/01/2018 12:45,9.94,2.44
06/01/2018 13:00,10.07,2.45
06/01/2018 13:15,10.2,2.46
06/01/2018 13:30,10.5,2.48
06/01/2018 13:45,10.63,2.5
06/01/2018 14:00,10.75,2.54
06/01/2018 14:15,10.95,2.54
06/01/2018 14:30,11.19,2.6
06/01/2018 14:45,11.34,2.84
06/01/2018 15:00,11.63,2.92
06/01/2018 15:15,11.83,2.93
06/01/2018 15:30,12.05,2.96
06/01/2018 15:45,12.29,2.99
06/01/2018 16:00,12.46,2.98
06/01/2018 16:15,12.61,3.05
06/01/2018 16:30,12.74,3.03
06/01/2018 16:45,12.84,3.03
06/01/2018 17:00,13.09,3.01
06/01/2018 17:15,13.22,2.99
06/01/2018 17:30,13.62,3
06/01/2018 17:45,12.98,2.93
06/01/2018 18:00,12.81,2.87
06/01/2018 18:15,12.54,2.8
06/01/2018 18:30,12.41,2.71
06/01/2018 18:45,12.27,2.67
06/01/2018 19:00,12.19,2.6
06/01/2018 19:15,12.06,2.53
06/01/2018 19:30,12.01,2.59
06/01/2018 19:45,11.85,2.54
06/01/2018 20:00,11.59,2.48
06/01/2018 20:15,11.34,2.53
06/01/2018 20:30,10.93,2.33
06/01/2018 20:45,10.54,2.28
06/01/2018 21:00,10.17,2.15
06/01/2018 21:15,10.09,2.18
06/01/2018 21:30,9.95,2.29
06/01/2018 21:45,9.44,1.97
06/01/2018 22:00,9.12,1.89
06/01/2018 22:15,8.94,1.77
06/01/2018 22:30,9.01,1.69
06/01/2018 22:45,8.73,1.61
06/01/2018 23:00,8.33,1.55
06/01/2018 23:15,8.26,1.46
06/01/2018 23:30,8.54,1.39
06/01/2018 23:45,8.7,1.3
07/01/2018 00:00,8.75,1.16
07/01/2018 00:15,9.03,1.09
07/01/2018 00:30,9.74,1.07
07/01/2018 00:45,9.65,1.1
07/01/2018 01:00,8.7,1.03
07/01/2018 01:15,7.97,0.98
07/01/2018 01:30,7.47,0.98
07/01/2018 01:45,6.98,0.93
07/01/2018 02:00,6.72,0.91
07/01/2018 02:15,6.67,0.86
07/01/2018 02:30,6.57,0.86
07/01/2018 02:45,6.45,0.84
07/01/2018 03:00,6.13,0.79
07/01/2018 03:15,6.05,0.77
07/01/2018 03:30,6.03,0.84
07/01/2018 03:45,5.87,0.78
07/01/2018 04:00,5.89,0.77
07/01/2018 04:15,5.87,0.74
07/01/2018 04:30,5.73,0.65
07/01/2018 04:45,6,0.79
07/01/2018 05:00,5.87,0.72
07/01/2018 05:15,5.83,0.7
07/01/2018 05:30,5.85,0.7
07/01/2018 05:45,5.78,0.67
07/01/2018 06:00,5.71,0.58
07/01/2018 06:15,5.81,0.59
07/01/2018 06:30,5.7,0.51
07/01/2018 06:45,5.64,0.48
07/01/2018 07:00,5.84,0.51
07/01/2018 07:15,5.76,0.51
07/01/2018 07:30,5.96,0.52
07/01/2018 07:45,6.18,0.59
07/01/2018 08:00,6.08,0.59
07/01/2018 08:15,5.7,0.69
07/01/2018 08:30,5.78,0.68
07/01/2018 08:45,5.88,0.73
07/01/2018 09:00,5.57,0.74
07/01/2018 09:15,5.86,0.72
07/01/2018 09:30,6.21,0.71
07/01/2018 09:45,5.93,0.67
07/01/2018 10:00,5.88,0.72
07/01/2018 10:15,5.93,0.72
07/01/2018 10:30,5.75,0.8
07/01/2018 10:45,5.64,0.97
07/01/2018 11:00,5.53,0.9
07/01/2018 11:15,5.36,0.95
07/01/2018 11:30,5.14,1.05
07/01/2018 11:45,5.43,1.02
07/01/2018 12:00,5.55,1.12
07/01/2018 12:15,5.19,1.15
07/01/2018 12:30,5.26,1.12
07/01/2018 12:45,5.13,1.15
07/01/2018 13:00,5.34,1.19
07/01/2018 13:15,5.6,1.15
07/01/2018 13:30,5.2,1.14
07/01/2018 13:45,5.68,1.17
07/01/2018 14:00,5.4,1.18
07/01/2018 14:15,5.4,1.16
07/01/2018 14:30,5.48,1.21
07/01/2018 14:45,5.26,1.26
07/01/2018 15:00,5.41,1.24
07/01/2018 15:15,5.75,1.3
07/01/2018 15:30,5.94,1.32
07/01/2018 15:45,6.39,1.28
07/01/2018 16:00,6.31,1.39
07/01/2018 16:15,6.48,1.55
07/01/2018 16:30,6.3,1.43
07/01/2018 16:45,6.58,1.44
07/01/2018 17:00,6.95,1.44
07/01/2018 17:15,7.31,1.38
07/01/2018 17:30,7.52,1.47
07/01/2018 17:45,7.45,1.44
07/01/2018 18:00,7.75,1.39
07/01/2018 18:15,8.04,1.45
07/01/2018 18:30,8.36,1.48
07/01/2018 18:45,8.55,1.65
07/01/2018 19:00,8.52,1.62
07/01/2018 19:15,8.36,1.57
07/01/2018 19:30,8.33,1.58
07/01/2018 19:45,8.32,1.53
07/01/2018 20:00,8.21,1.47
07/01/2018 20:15,8.13,1.48
07/01/2018 20:30,7.91,1.4
07/01/2018 20:45,7.88,1.5
07/01/2018 21:00,7.76,1.4
07/01/2018 21:15,7.96,1.49
07/01/2018 21:30,7.88,1.48
07/01/2018 21:45,7.63,1.27
07/01/2018 22:00,7.41,1.2
07/01/2018 22:15,7.42,1.15
07/01/2018 22:30,7.58,1.06
07/01/2018 22:45,7.52,1.04
07/01/2018 23:00,7.38,1.05
07/01/2018 23:15,7.38,0.98
07/01/2018 23:30,7.68,0.89
07/01/2018 23:45,7.93,0.87
08/01/2018 00:00,8.17,0.86
08/01/2018 00:15,8.5,0.84
08/01/2018 00:30,9.41,0.87
08/01/2018 00:45,9.5,0.86
08/01/2018 01:00,8.67,0.85
08/01/2018 01:15,7.98,0.81
08/01/2018 01:30,7.29,0.8
08/01/2018 01:45,6.62,0.66
08/01/2018 02:00,6.38,0.6
08/01/2018 02:15,6.24,0.6
08/01/2018 02:30,6.28,0.59
08/01/2018 02:45,5.99,0.58
08/01/2018 03:00,5.8,0.53
08/01/2018 03:15,5.76,0.54
08/01/2018 03:30,5.68,0.57
08/01/2018 03:45,5.56,0.58
08/01/2018 04:00,5.49,0.6
08/01/2018 04:15,5.48,0.54
08/01/2018 04:30,5.47,0.52
08/01/2018 04:45,5.69,0.57
08/01/2018 05:00,5.66,0.58
08/01/2018 05:15,5.75,0.62
08/01/2018 05:30,5.69,0.57
08/01/2018 05:45,5.7,0.53
08/01/2018 06:00,5.96,0.49
08/01/2018 06:15,6.19,0.56
08/01/2018 06:30,6.25,0.53
08/01/2018 06:45,6.5,0.56
08/01/2018 07:00,6.77,0.6
08/01/2018 07:15,6.83,0.65
08/01/2018 07:30,7.13,0.74
08/01/2018 07:45,7.35,0.85
08/01/2018 08:00,7.65,0.97
08/01/2018 08:15,7.14,1.09
08/01/2018 08:30,7.2,1.23
08/01/2018 08:45,7.32,1.37
08/01/2018 09:00,7.13,1.42
08/01/2018 09:15,7.34,1.51
08/01/2018 09:30,7.11,1.5
08/01/2018 09:45,7.28,1.55
08/01/2018 10:00,6.91,1.47
08/01/2018 10:15,6.69,1.51
08/01/2018 10:30,6.6,1.55
08/01/2018 10:45,6.81,1.68
08/01/2018 11:00,6.77,1.78
08/01/2018 11:15,6.87,2.03
08/01/2018 11:30,6.92,2.03
08/01/2018 11:45,7.09,1.95
08/01/2018 12:00,7.01,2.01
08/01/2018 12:15,7.07,1.99
08/01/2018 12:30,7.17,1.97
08/01/2018 12:45,7.24,2.1
08/01/2018 13:00,7.23,2.12
08/01/2018 13:15,6.99,2.13
08/01/2018 13:30,7.14,2.2
08/01/2018 13:45,6.95,2.23
08/01/2018 14:00,6.75,2.2
08/01/2018 14:15,6.88,2.21
08/01/2018 14:30,6.97,2.19
08/01/2018 14:45,6.86,2.23
08/01/2018 15:00,7.01,2.19
08/01/2018 15:15,7.03,2.15
08/01/2018 15:30,7.51,2.47
08/01/2018 15:45,7.52,2.46
08/01/2018 16:00,7.43,2.34
08/01/2018 16:15,7.66,2.23
08/01/2018 16:30,7.78,2.26
08/01/2018 16:45,7.75,2.23
08/01/2018 17:00,7.9,2.14
08/01/2018 17:15,7.96,2.17
08/01/2018 17:30,8.13,2.07
08/01/2018 17:45,8.2,1.98
08/01/2018 18:00,8.43,1.97
08/01/2018 18:15,8.59,1.93
08/01/2018 18:30,8.79,1.89
08/01/2018 18:45,8.9,1.97
08/01/2018 19:00,8.93,1.97
08/01/2018 19:15,8.85,1.89
08/01/2018 19:30,8.64,1.74
08/01/2018 19:45,8.63,1.73
08/01/2018 20:00,8.43,1.65
08/01/2018 20:15,8.33,1.61
08/01/2018 20:30,8.13,1.53
08/01/2018 20:45,7.84,1.44
08/01/2018 21:00,7.73,1.34
08/01/2018 21:15,7.79,1.33
08/01/2018 21:30,7.73,1.39
08/01/2018 21:45,7.5,1.24
08/01/2018 22:00,7.27,1.18
08/01/2018 22:15,7.26,1.03
08/01/2018 22:30,7.53,0.96
08/01/2018 22:45,7.48,0.98
08/01/2018 23:00,7.17,0.95
08/01/2018 23:15,7.23,0.92
08/01/2018 23:30,7.56,0.89
08/01/2018 23:45,7.86,0.87
09/01/2018 00:00,8.04,0.83
09/01/2018 00:15,8.47,0.84
09/01/2018 00:30,9.53,0.87
09/01/2018 00:45,9.72,0.87
09/01/2018 01:00,8.91,0.85
09/01/2018 01:15,8.23,0.87
09/01/2018 01:30,7.54,0.78
09/01/2018 01:45,7.06,0.78
09/01/2018 02:00,6.72,0.74
09/01/2018 02:15,6.56,0.72
09/01/2018 02:30,6.57,0.74
09/01/2018 02:45,6.21,0.71
09/01/2018 03:00,5.91,0.65
09/01/2018 03:15,5.89,0.62
09/01/2018 03:30,5.71,0.59
09/01/2018 03:45,5.54,0.54
09/01/2018 04:00,5.61,0.55
09/01/2018 04:15,5.55,0.53
09/01/2018 04:30,5.38,0.5
09/01/2018 04:45,5.53,0.54
09/01/2018 05:00,5.62,0.49
09/01/2018 05:15,5.63,0.46
09/01/2018 05:30,5.79,0.48
09/01/2018 05:45,5.9,0.5
09/01/2018 06:00,5.94,0.47
09/01/2018 06:15,5.96,0.46
09/01/2018 06:30,6.14,0.46
09/01/2018 06:45,6.49,0.51
09/01/2018 07:00,6.87,0.58
09/01/2018 07:15,6.99,0.64
09/01/2018 07:30,6.85,0.66
09/01/2018 07:45,7.21,0.89
09/01/2018 08:00,7.38,1.04
09/01/2018 08:15,6.77,1.13
09/01/2018 08:30,6.76,1.25
09/01/2018 08:45,7,1.42
09/01/2018 09:00,7.17,1.59
09/01/2018 09:15,7.04,1.61
09/01/2018 09:30,6.99,1.57
09/01/2018 09:45,6.97,1.61
09/01/2018 10:00,6.9,1.6
09/01/2018 10:15,6.67,1.61
09/01/2018 10:30,6.85,1.71
09/01/2018 10:45,7.09,1.79
09/01/2018 11:00,6.94,1.88
09/01/2018 11:15,6.83,1.85
09/01/2018 11:30,7.15,1.94
09/01/2018 11:45,6.97,1.95
09/01/2018 12:00,6.64,2.1
09/01/2018 12:15,6.92,2.19
09/01/2018 12:30,7.21,2.08
09/01/2018 12:45,6.77,2.02
09/01/2018 13:00,6.93,2.17
09/01/2018 13:15,6.93,2.21
09/01/2018 13:30,6.84,2.26
09/01/2018 13:45,6.57,2.2
09/01/2018 14:00,6.42,2.22
09/01/2018 14:15,6.34,2.29
09/01/2018 14:30,6.31,2.28
09/01/2018 14:45,6.22,2.29
09/01/2018 15:00,6.24,2.25
09/01/2018 15:15,6.21,2.2
09/01/2018 15:30,6.26,2.25
09/01/2018 15:45,6.27,2.21
09/01/2018 16:00,6.28,2.13
09/01/2018 16:15,6.33,2.03
09/01/2018 16:30,6.4,1.93
09/01/2018 16:45,6.47,1.9
09/01/2018 17:00,6.65,1.86
09/01/2018 17:15,6.65,1.75
09/01/2018 17:30,6.73,1.7
09/01/2018 17:45,7.02,1.72
09/01/2018 18:00,7.15,1.66
09/01/2018 18:15,7.18,1.49
09/01/2018 18:30,7.27,1.48
09/01/2018 18:45,7.35,1.42
09/01/2018 19:00,7.42,1.36
09/01/2018 19:15,7.35,1.26
09/01/2018 19:30,7.37,1.28
09/01/2018 19:45,7.34,1.23
09/01/2018 20:00,7.33,1.18
09/01/2018 20:15,7.28,1.14
09/01/2018 20:30,7.15,1.09
09/01/2018 20:45,7.14,1.07
09/01/2018 21:00,7.1,1.07
09/01/2018 21:15,7.29,1.07
09/01/2018 21:30,7.3,1.12
09/01/2018 21:45,7.2,1.11
09/01/2018 22:00,7.04,1.07
09/01/2018 22:15,7.06,1.04
09/01/2018 22:30,7.41,1.05
09/01/2018 22:45,7.44,0.99
09/01/2018 23:00,7.31,1.05